Вернуться в каталог

FENGYUN 1C DEB

АктивенPO
NORAD 29893·DEBRIS·🇨🇳 China

Запущен May 10, 1999 с Taiyuan Satellite Launch Center

Loading…

Ближайшие Пролёты (ближайшие 24 часа)

TLE

СвежийSource: Space-Track

Эпоха: Sep 14, 2026, 16:23 UTC

1 29893U 99025GP  26257.68268683  .00000112  00000-0  12840-3 0  9997
2 29893  98.5397 332.1200 0173901 126.5386  34.0149 13.79569701989440

Отслеживайте FENGYUN 1C DEB в реальном времени с AllMySat

Download on the App Store